Regional Weather Roundup
Issued by NWS Mobile, AL

Home | Current Version | Previous Version | Text Only | Print | Product List | Glossary On
Versions: 1 2 3 4 5 6 7 8 9 10 11 12 13 14 15 16 17 18 19 20 21 22 23 24 25 26 27 28 29 30 31 32 33 34 35 36 37 38 39 40 41 42 43 44 45 46 47 48 49 50
000
ASUS44 KMOB 271210
RWRMOB
REGIONAL WEATHER ROUNDUP
NATIONAL WEATHER SERVICE MOBILE AL
600 AM CST FRI FEB 27 2015

NOTE: "FAIR" INDICATES FEW OR NO CLOUDS BELOW 12,000 FEET WITH NO
      SIGNIFICANT WEATHER AND/OR OBSTRUCTIONS TO VISIBILITY.

  * THESE STATIONS ARE PART OF THE UNIVERSITY OF SOUTH ALABAMA
    MESONET AND ARE NOT UNDER NWS OR FAA QUALITY CONTROL.

ALZ061>064-271300-
COASTAL ALABAMA

CITY           SKY/WX    TMP DP  RH WIND       PRES   REMARKS
MOBILE REG APT PTCLDY    30  28  92 N13       30.36R FOG     WCI  20
6HR MIN TEMP:  30; 6HR MAX TEMP:  36;

BROOKLEY FIELD PTCLDY    33  30  88 N12       30.37R WCI  24
6HR MIN TEMP:  33; 6HR MAX TEMP:  40;

USA CAMPUS*      N/A     32  30  93 CALM      30.36R
DOG RIVER*     NOT AVBL


CITY           SKY/WX    TMP DP  RH WIND       PRES   REMARKS
MOUNT VERNON*    N/A     28  28 100 CALM      30.39R
SARALAND*      NOT AVBL
BAY MINETTE*   NOT AVBL
LOXLEY*          N/A     32  30  93 N9        30.35R WCI  24
ROBERTSDALE*     N/A     32  30  93 NE13      30.34R WCI  22
FAIRHOPE*        N/A     32  30  93 N8        30.34R WCI  25
ELBERTA*         N/A     32  30  93 NW8       30.32R WCI  25
FOLEY*         NOT AVBL
GRAND BAY*       N/A     32  30  93 N7        30.33R WCI  26
DAUPHIN ISLND* NOT AVBL
BON SCOUR NWR* NOT AVBL
GULF SHORES    PTCLDY    33  31  90 N7        30.33R WCI  27

$$

ALZ051>060-271300-
INTERIOR SOUTHWEST AND SOUTH CENTRAL ALABAMA

CITY           SKY/WX    TMP DP  RH WIND       PRES   REMARKS
GREENVILLE     NOT AVBL
EVERGREEN      CLEAR     31  29  92 N6        30.36R WCI  25
6HR MIN TEMP:  31; 6HR MAX TEMP:  34;

CASTLEBERRY*   NOT AVBL
ATMORE*          N/A     30  30 100 MISG      30.37R
DIXIE*           N/A     28  28 100 CALM      30.29R
ANDALUSIA/OPP  PTCLDY    34  29  82 N5        30.33R WCI  30
6HR MIN TEMP:  34; 6HR MAX TEMP:  39;

ANDALUSIA*       N/A     30  30 100 N6        30.31R WCI  24
FLORALA APT    MOCLDY    32  29  88 N5        30.33R WCI  27
6HR MIN TEMP:  32; 6HR MAX TEMP:  35;

FLORALA*         N/A     32  30  93 N6        30.27R WCI  26

$$

FLZ001>006-271300-
WESTERN FLORIDA PANHANDLE

CITY           SKY/WX    TMP DP  RH WIND       PRES   REMARKS
PENSACOLA      PTCLDY    34  30  85 N13       30.33R WCI  25
6HR MIN TEMP:  34; 6HR MAX TEMP:  39;

NAS PENSACOLA  MOCLDY    35  30  82 N8        30.32R WCI  29
6HR MIN TEMP:  35; 6HR MAX TEMP:  40;

MILTON         MOCLDY    33  29  85 N9        30.32R WCI  25
6HR MIN TEMP:  33; 6HR MAX TEMP:  36;

WHTNG S FIELD  MOCLDY    36  29  75 N12       30.33R
6HR MIN TEMP:  36; 6HR MAX TEMP:  39;



CITY           SKY/WX    TMP DP  RH WIND       PRES   REMARKS
WALNUT HILL*   NOT AVBL
JAY*             N/A     32  30  93 N7        30.34R WCI  26
DUKE FIELD     MOCLDY    33  30  88 N8        30.29R WCI  27
CRESTVIEW      MOCLDY    33  30  88 N6        30.33R WCI  28
6HR MIN TEMP:  33; 6HR MAX TEMP:  36;

VALPARAISO     MOCLDY    35  31  84 N12       30.29R WCI  27
6HR MIN TEMP:  35; 6HR MAX TEMP:  38;

DESTIN         MOCLDY    38  32  79 N12       30.30R
6HR MIN TEMP:  38; 6HR MAX TEMP:  40;


$$

MSZ076-079-271300-
INTERIOR SOUTHEAST MISSISSIPPI

CITY           SKY/WX    TMP DP  RH WIND       PRES   REMARKS
LEAKESVILLE*     N/A     30  30 100 E12       30.36S WCI  21
AGRICOLA*      NOT AVBL

$$

MARINE OBSERVATIONS

STATION/POSITION TIME  TEMP    WIND        PRES    WAVE
                       AIR SEA DIR/SP/G            HT/PER
                 (UTC) (F)     (DEG/KT/KT) (MB)    (FT/S)
PASCAGOULA       1200   35      10/ 14/ 18 1027.5R
PETIT BOIS ISLND 1200   37      20/ 17/ 22 1027.9R
GRAND BAY        1100   34      10/  8     1027.0S
KATRINA CUT      1100   37      30/ 19     1027.4R
CEDAR POINT      1100   33      10/ 11     1027.4R
E DAUPHIN ISLAND 1055   39     360/ 18/ 21 1026.4R
MIDDLE BAY LIGHT 1100   37     360/ 20     1026.8R
USCG MOBILE BAY  1200   33 52  350/  7/ 10 1027.1R
STATE DOCKS      1200   34 47              1027.8R
MEAHER PARK      1100   34     350/  5     1028.4R
WEEKS BAY        1100   35                   N/A
FORT MORGAN      1200   39      40/ 21/ 23 1026.7R
12 S ORANGE BCH  1200   41 62   10/ 21/ 25 1025.7R   3/ 4
PENSACOLA BAY    1200   37 53   10/  7/ 12 1027.0R
64 S DAUPHIN ISL 1130   46 64   30/ 21/ 29 1025.7R   7/ 6
67 S FORT MORGAN 1100   48      20/ 23     1025.1

$$

SELECTED LOCATIONS ACROSS THE REGION

CITY           SKY/WX    TMP DP  RH WIND       PRES   REMARKS
NEW ORLEANS    MOCLDY    37  30  75 NE14      30.36R
GULFPORT       CLEAR     32  28  85 NE8       30.35R WCI  25
PASCAGOULA AP  CLEAR     32  29  88 N14       30.36R WCI  22
PASCAGOULA*    NOT AVBL
HATTIESBURG    MOCLDY    34  30  85 NE5       30.40R WCI  30
LAUREL         CLOUDY    34  27  75 N10       30.39R WCI  26
MERIDIAN       CLOUDY    30  24  78 NE17      30.42R WCI  18
JACKSON        CLOUDY    31  24  75 NE10      30.42R WCI  22
MONTGOMERY     CLEAR     32  26  78 N8        30.37R WCI  25
TROY           CLEAR     30  27  88 N7        30.33R WCI  23
KINSTON*       NOT AVBL
GENEVA*          N/A     34  30  86 NE7       30.33R WCI  28
ASHFORD*         N/A     30  30 100 N6        30.31R WCI  24
DOTHAN         MOCLDY    34  30  85 N9        30.33R WCI  27
PANAMA CITY    CLEAR     37  32  82 N12       30.27R

$$



USA.gov is the U.S. government's official web portal to all federal, state and local government web resources and services.